Location: Bosmont
(49.7318°N, 3.8587°E)
Time: 17:46:40
(UTC+00:00)

RESURS DK-1 - Pass Details

Date: 08 February 2023
Orbit: 549 x 557 km, 69.9° (Epoch: 25 March)

Event Time Altitude Azimuth Distance (km) Brightness Sun altitude
Rises 17:54:19 0° 322° (NW) 2,743 6.3 -10.6°
Reaches altitude 10° 17:56:40 10° 313° (NW) 1,845 5.5 -11.0°
Maximum altitude 18:00:22 33° 249° (WSW) 948 4.3 -11.6°
Drops below altitude 10° 18:04:04 10° 185° (S) 1,837 5.2 -12.2°
Sets 18:06:24 0° 176° (S) 2,729 5.9 -12.5°
